Volver al catálogo

CZ-6A DEB

ActivoSSO
NORAD 54960·DEBRIS·🇨🇳 China

Lanzado Nov 11, 2022 desde Taiyuan Satellite Launch Center

Loading…

Próximos Pases (próximas 24 horas)

TLE

ActualizadoSource: Space-Track

Época: Sep 14, 2026, 10:40 UTC

1 54960U 22151SZ  26257.44510187  .00000001  00000-0  25169-4 0  9995
2 54960  98.8395 251.9516 0048537  92.9284 267.7442 14.09491860196244

Sigue CZ-6A DEB en tiempo real con AllMySat

Download on the App Store